Voltar ao catálogo

ARIANE 5 DEB

SYLDA

AtivoHEO
NORAD 42694·DEBRIS·🇫🇷 France

Lançado May 4, 2017 de Guiana Space Centre

Loading…

Próximas Passagens (próximas 24 horas)

TLE

AtualizadoSource: Space-Track

Época: Sep 14, 2026, 16:15 UTC

1 42694U 17023D   26257.67728498 -.00000206  00000-0 -86707-3 0  9992
2 42694   3.7128 107.0971 5464214 339.8832   5.0506  4.56115838120274

Acompanhe ARIANE 5 DEB em tempo real com AllMySat

Download on the App Store